Regional Weather Roundup
Issued by NWS

Home | Current Version | Previous Version | Graphics & Text | Print | Product List | Glossary Off
Versions: 1 2 3 4 5 6 7 8 9 10 11 12 13 14 15 16 17 18 19 20 21 22 23 24 25 26 27 28 29 30 31 32 33 34 35 36 37 38 39 40 41 42 43 44 45 46 47 48 49 50

000
ASUS43 KTOP 010608
RWRKS

WEATHER ROUNDUP FOR KANSAS
NATIONAL WEATHER SERVICE GOODLAND KS
100 AM CDT SAT OCT 01 2016

NOTE:  "FAIR" INDICATES FEW OR NO CLOUDS BELOW 12,000 FEET WITH NO
SIGNIFICANT WEATHER AND/OR OBSTRUCTIONS TO VISIBILITY.

KSZ001>006-013>018-027>032-041>047-010700-
NORTHWEST KANSAS

CITY           SKY/WX    TMP DP  RH WIND       PRES   REMARKS
GOODLAND       CLEAR     55  43  63 SE8       30.14S
6HR MIN TEMP:  55; 6HR MAX TEMP:  70;

HAYS           CLOUDY    54  39  58 CALM      30.15S
HILL CITY      CLOUDY    52  49  89 CALM      30.16R
6HR MIN TEMP:  50; 6HR MAX TEMP:  65;

RUSSELL        CLOUDY    55  47  74 SE6       30.14S
6HR MIN TEMP:  55; 6HR MAX TEMP:  68;

$$

KSZ061>065-074>080-084>089-010700-
SOUTHWEST KANSAS

CITY           SKY/WX    TMP DP  RH WIND       PRES   REMARKS
DODGE CITY     PTCLDY    58  46  64 SE8       30.14S
6HR MIN TEMP:  58; 6HR MAX TEMP:  71;

ELKHART          N/A     56  45  67 SE13        N/A
GARDEN CITY    CLOUDY    58  46  64 E9        30.13S
6HR MIN TEMP:  58; 6HR MAX TEMP:  72;

GREAT BEND     MOCLDY    55  43  62 SE6       30.14S
LIBERAL        MOCLDY    63  46  55 SE15      30.12F
PRATT          CLOUDY    55  44  67 E3        30.15S
6HR MIN TEMP:  53; 6HR MAX TEMP:  66;

$$

KSZ066>073-081>083-090>101-010700-
SOUTHEAST KANSAS

CITY           SKY/WX    TMP DP  RH WIND       PRES   REMARKS
CHANUTE        PTCLDY    53  51  93 CALM      30.12S
6HR MIN TEMP:  53; 6HR MAX TEMP:  69;

COFFEYVILLE    PTCLDY    54  52  93 CALM      30.11F
6HR MIN TEMP:  52; 6HR MAX TEMP:  70;

HUTCHINSON     CLEAR     51  49  92 CALM      30.15R
6HR MIN TEMP:  50; 6HR MAX TEMP:  67;

MEDICINE LODGE   N/A     57  49  74 CALM      30.13S
NEWTON         PTCLDY    58  50  75 E6        30.15S
PARSONS        PTCLDY    51  49  92 CALM      30.12F
6HR MIN TEMP:  50; 6HR MAX TEMP:  62;

WICHITA INTL   PTCLDY    57  52  83 CALM      30.13S
6HR MIN TEMP:  55; 6HR MAX TEMP:  69;

WICHITA JABRA  CLEAR     57  52  83 CALM      30.13S
6HR MIN TEMP:  55; 6HR MAX TEMP:  66;

WICHITA MCCONL CLEAR     59  50  72 NE5       30.13S
WINFIELD       PTCLDY    55  51  86 CALM      30.14S
6HR MIN TEMP:  55; 6HR MAX TEMP:  69;

$$

KSZ007>012-019>026-033>040-048>060-102>105-010700-
NORTHEAST KANSAS

CITY           SKY/WX    TMP DP  RH WIND       PRES   REMARKS
CONCORDIA      MOCLDY    53  50  89 CALM      30.15S
6HR MIN TEMP:  53; 6HR MAX TEMP:  67;

EMPORIA        PTCLDY    55  51  86 NW5       30.13S
6HR MIN TEMP:  55; 6HR MAX TEMP:  67;

LAWRENCE       CLOUDY    52  52 100 CALM      30.13S
6HR MIN TEMP:  51; 6HR MAX TEMP:  63;

MANHATTAN      MOCLDY    51  49  92 CALM      30.14S
6HR MIN TEMP:  49; 6HR MAX TEMP:  68;

MARYSVILLE     CLEAR     50  48  93 CALM      30.15S
OLATHE IND     PTCLDY    54  52  93 CALM      30.14S
6HR MIN TEMP:  54; 6HR MAX TEMP:  65;

OLATHE EXE     PTCLDY    56  53  90 NE3       30.13S
6HR MIN TEMP:  56; 6HR MAX TEMP:  67;

SALINA         PTCLDY    57  50  77 CALM      30.15S
6HR MIN TEMP:  57; 6HR MAX TEMP:  70;

TOPEKA BILLARD PTCLDY    53  50  89 CALM      30.13S
6HR MIN TEMP:  53; 6HR MAX TEMP:  64;

TOPEKA FORBES  PTCLDY    54  50  86 CALM      30.13S
6HR MIN TEMP:  54; 6HR MAX TEMP:  66;

$$




USA.gov is the U.S. government's official web portal to all federal, state and local government web resources and services.